This is the latest recevied weather packets stored in our database for station/object K8RRT. If no packets are shown the sender has not sent any weather packets the latest 10 day(s).
| Time | Temp. | Humidity | Pressure | Rain* | Wind** | Luminosity | Snow |
|---|---|---|---|---|---|---|---|
| 1788011661 | 22.22° C | 86% | 1018.1 hPa | 0 mm | - | 471 W/m² | - |
| 1788011357 | 22.22° C | 88% | 1018.1 hPa | 0 mm | - | 416 W/m² | - |
| 1788011056 | 21.67° C | 88% | 1017.9 hPa | 0 mm | - | 405 W/m² | - |
| 1788010754 | 21.67° C | 90% | 1018 hPa | 0 mm | - | 377 W/m² | - |
| 1788010449 | 21.67° C | 90% | 1018 hPa | 0 mm | - | 340 W/m² | - |
| 1788010144 | 21.11° C | 91% | 1018.1 hPa | 0 mm | - | 336 W/m² | - |
| 1788009839 | 20.56° C | 92% | 1017.9 hPa | 0 mm | - | 294 W/m² | - |
| 1788009537 | 20.56° C | 93% | 1017.9 hPa | 0 mm | - | 455 W/m² | - |
| 1788009232 | 20° C | 94% | 1017.8 hPa | 0 mm | - | 117 W/m² | - |
| 1788008926 | 20° C | 95% | 1017.9 hPa | 0 mm | - | 98 W/m² | - |
| 1788008623 | 20° C | 96% | 1018 hPa | 0 mm | - | 94 W/m² | - |
| 1788008320 | 19.44° C | 98% | 1017.9 hPa | 0 mm | - | 89 W/m² | - |
| 1788008017 | 18.89° C | 99% | 1017.8 hPa | 0 mm | - | 90 W/m² | - |
| 1788007717 | 18.33° C | 99% | 1017.7 hPa | 0 mm | - | 150 W/m² | - |
| 1788007412 | 18.33° C | 99% | 1017.7 hPa | 0 mm | - | 141 W/m² | - |
| 1788007112 | 18.33° C | 99% | 1017.8 hPa | 0 mm | - | 145 W/m² | - |
| 1788006810 | 17.78° C | 99% | 1017.9 hPa | 0 mm | - | 141 W/m² | - |
| 1788006506 | 17.78° C | 99% | 1018 hPa | 0 mm | - | 122 W/m² | - |
| 1788006200 | 17.22° C | 99% | 1017.9 hPa | 0 mm | - | 114 W/m² | - |
| 1788005898 | 17.22° C | 99% | 1018 hPa | 0 mm | - | 100 W/m² | - |
| 1788005594 | 17.22° C | 99% | 1018.1 hPa | 0 mm | - | 69 W/m² | - |
| 1788005288 | 17.22° C | 99% | 1018.1 hPa | 0 mm | - | 53 W/m² | - |
| 1788004986 | 16.67° C | 99% | 1018 hPa | 0 mm | - | 49 W/m² | - |
| 1788004679 | 16.67° C | 99% | 1018 hPa | 0 mm | - | 45 W/m² | - |
| 1788004374 | 16.67° C | 99% | 1018.2 hPa | 0 mm | - | 88 W/m² | - |
* Rain latest hour (hover to see other rain measurements)
** Current wind speed in m/s (hover to see current wind gust speed)